This is the latest recevied weather packets stored in our database for station/object WB4FAY-4. If no packets are shown the sender has not sent any weather packets the latest 10 day(s).
| Time | Temp. | Humidity | Pressure | Rain* | Wind** | Luminosity | Snow |
|---|---|---|---|---|---|---|---|
| 1777773618 | 14.44° C | 62% | 1018.1 hPa | 0 mm | - | - | - |
| 1777773317 | 14.44° C | 61% | 1018 hPa | 0 mm | - | - | - |
| 1777773017 | 15° C | 60% | 1018 hPa | 0 mm | - | - | - |
| 1777772718 | 15° C | 60% | 1017.8 hPa | 0 mm | - | - | - |
| 1777772417 | 15° C | 59% | 1017.8 hPa | 0 mm | - | - | - |
| 1777772117 | 15.56° C | 58% | 1017.7 hPa | 0 mm | - | - | - |
| 1777771817 | 15.56° C | 57% | 1017.6 hPa | 0 mm | - | - | - |
| 1777771518 | 15.56° C | 56% | 1017.5 hPa | 0 mm | - | - | - |
| 1777771217 | 16.11° C | 55% | 1017.4 hPa | 0 mm | - | - | - |
| 1777770917 | 16.11° C | 53% | 1017.4 hPa | 0 mm | - | - | - |
| 1777770618 | 16.67° C | 53% | 1017.3 hPa | 0 mm | - | - | - |
| 1777770317 | 16.67° C | 53% | 1017.3 hPa | 0 mm | - | - | - |
| 1777770018 | 16.67° C | 51% | 1017.2 hPa | 0 mm | - | - | - |
| 1777769717 | 17.22° C | 50% | 1017.2 hPa | 0 mm | - | - | - |
| 1777769417 | 17.22° C | 51% | 1017.1 hPa | 0 mm | - | - | - |
| 1777769117 | 17.78° C | 47% | 1017.1 hPa | 0 mm | - | - | - |
| 1777768818 | 17.78° C | 44% | 1017 hPa | 0 mm | - | - | - |
| 1777768517 | 17.78° C | 44% | 1016.9 hPa | 0 mm | - | - | - |
| 1777768218 | 18.33° C | 44% | 1016.9 hPa | 0 mm | - | - | - |
| 1777767917 | 18.33° C | 42% | 1016.8 hPa | 0 mm | - | - | - |
| 1777767617 | 18.89° C | 42% | 1016.8 hPa | 0 mm | - | - | - |
| 1777767317 | 18.89° C | 42% | 1016.6 hPa | 0 mm | - | - | - |
| 1777767018 | 18.89° C | 40% | 1016.5 hPa | 0 mm | - | - | - |
| 1777766717 | 18.89° C | 41% | 1016.5 hPa | 0 mm | - | - | - |
| 1777766417 | 19.44° C | 40% | 1016.4 hPa | 0 mm | - | - | - |
* Rain latest 24 hours (hover to see other rain measurements)
** Current wind speed in m/s (hover to see current wind gust speed)